Wetbulb
59.16 59.28 59.39 59.33 59.36 59.45 59.45 59.36 59.31 59.36 59.57 59.85 60.12 60.25 60.25 60.36 59.71 57.44 50.73 56.34 57.96 63.48 59.77 56.10 56.00 54.93 55.39 53.69 52.94 51.93 47.42 44.67 44.89 44.35 46.24 49.54 48.38 49.56 50.75 50.25 50.07 51.92 52.69 54.41 52.99
58.79 58.90 59.08 59.13 59.11 59.29 59.46 59.52 59.40 59.29 59.30 59.37 59.46 59.73 60.02 59.93 56.07 52.60 59.75 61.66 64.51 61.93 55.45 54.33 52.96 53.68 52.56 52.01 52.78 50.59 46.90 46.08 48.46 48.43 47.16 48.97 48.66 50.12 49.21 50.21 50.21 50.64 53.52 53.00 52.13
58.62 58.65 58.77 58.83 58.93 59.13 59.33 59.40 59.38 59.43 59.31 59.25 59.24 59.40 59.54 59.42 51.14 49.79 61.80 63.06 65.36 60.81 56.37 54.94 54.63 53.19 50.33 51.57 51.42 50.11 46.58 49.41 48.15 48.35 48.11 48.13 48.29 49.98 49.25 48.51 51.30 51.12 52.50 54.23 52.23
58.69 58.54 58.60 58.64 58.78 59.13 59.29 59.38 59.58 59.52 59.39 59.20 59.15 59.14 59.35 56.60 44.62 50.53 63.21 64.82 64.22 56.96 54.77 53.46 52.69 50.38 49.27 48.28 50.64 46.60 49.43 49.63 49.51 48.74 48.26 47.78 49.46 48.44 49.40 50.63 52.98 53.59 53.80 53.61 52.63
58.72 58.55 58.55 58.51 58.65 59.12 59.42 59.56 59.85 60.01 59.60 59.33 59.10 58.89 55.91 48.48 49.52 59.87 64.14 64.71 57.83 54.78 53.54 52.47 50.87 50.46 47.90 48.66 48.24 46.99 49.05 49.64 50.18 48.90 48.68 49.27 48.46 48.84 49.41 52.07 53.23 53.07 51.79 51.43 52.28
58.59 58.35 58.31 58.38 58.63 59.05 59.37 59.60 59.81 59.92 59.47 59.35 59.07 58.38 51.47 43.20 53.32 61.44 61.55 56.21 55.47 54.55 53.00 52.88 51.50 51.99 48.87 47.82 47.25 48.14 47.77 48.15 48.53 48.18 48.43 46.63 48.03 47.13 49.14 51.69 50.84 50.85 50.80 51.50 51.49
58.47 58.13 57.89 58.07 58.70 58.99 59.18 59.42 59.48 59.35 58.95 59.09 59.08 56.49 48.95 48.72 54.91 59.24 56.49 55.21 54.41 54.15 51.60 51.98 52.21 51.01 49.95 46.92 48.34 47.00 44.36 46.82 47.23 46.66 46.09 47.15 44.54 44.97 49.86 50.50 49.09 49.74 50.71 50.80 50.71
58.06 57.66 57.59 57.93 58.41 58.84 59.22 59.48 59.16 58.37 59.44 58.20 58.84 55.49 47.22 51.17 55.63 54.53 53.54 51.58 53.37 52.81 52.16 52.20 52.22 50.37 48.54 48.26 45.71 43.56 43.23 41.00 45.74 44.25 45.37 46.26 41.73 47.54 49.83 47.54 47.85 49.18 50.19 50.63 51.27
57.75 57.44 57.75 58.10 58.18 58.35 58.84 58.77 57.37 59.19 58.87 58.58 54.87 50.06 46.74 52.97 49.93 51.54 52.45 50.24 50.96 50.93 51.42 50.68 51.43 48.26 46.94 44.35 42.33 43.03 39.20 41.00 42.33 44.94 44.28 44.42 42.74 47.21 48.11 46.96 46.95 48.06 48.86 49.36 50.08
57.83 57.70 58.01 58.21 58.18 58.42 58.31 55.48 56.58 57.33 57.83 57.33 53.67 46.50 48.49 46.37 49.79 49.46 50.65 50.87 48.92 49.69 48.60 48.38 47.55 44.98 43.79 42.30 36.97 40.40 39.07 39.42 39.11 43.99 42.50 41.61 41.52 45.14 46.93 46.49 46.23 47.18 48.20 49.17 49.56
58.28 58.32 58.45 58.36 58.55 58.96 55.15 53.42 54.39 51.12 51.32 49.98 49.97 46.66 46.52 49.01 50.23 48.32 49.56 48.82 48.69 47.38 43.60 45.27 42.41 39.95 43.35 43.83 43.88 42.02 39.77 39.17 42.02 44.35 41.23 41.27 42.01 43.68 45.38 45.57 45.78 46.84 47.90 48.91 49.37
58.73 58.73 58.81 58.54 58.62 57.25 54.33 51.88 49.15 48.86 46.75 49.84 48.33 47.16 47.71 49.66 46.20 46.60 49.62 46.18 44.96 42.13 42.17 40.76 38.80 44.24 44.17 42.40 40.56 40.48 38.98 39.19 42.33 43.53 40.45 41.28 40.59 43.27 44.83 45.76 46.78 46.82 47.45 48.45 49.27
58.71 58.51 58.55 58.59 58.19 56.99 52.20 50.80 51.57 50.42 44.84 46.91 45.95 45.13 45.96 48.13 45.59 45.74 47.30 45.59 43.19 40.25 40.79 40.86 43.43 42.66 41.06 40.70 38.86 40.19 38.13 39.01 39.12 40.90 41.19 39.03 39.76 41.21 45.42 46.00 46.31 46.73 47.56 47.59 47.53
58.08 57.95 58.12 58.36 56.09 54.92 51.88 50.94 51.21 49.87 43.84 44.36 42.22 43.99 45.24 46.22 41.86 44.73 46.13 44.83 42.62 40.27 40.75 40.53 42.63 39.67 38.61 38.26 40.36 37.15 42.95 39.78 37.99 36.61 34.11 38.86 33.05 40.89 43.94 44.14 44.89 46.70 46.16 46.65 46.74
54.61 56.06 57.91 56.90 56.22 54.92 51.60 51.53 49.68 46.73 34.19 42.54 41.20 47.52 45.29 42.03 42.12 42.20 45.17 44.75 40.21 40.38 40.04 40.43 39.30 37.62 37.58 39.53 40.60 38.77 39.46 37.91 36.95 36.27 34.73 36.47 33.00 40.92 40.03 42.05 44.37 45.48 44.91 44.73 44.51
52.73 54.37 56.39 56.99 56.86 52.77 51.19 51.17 50.12 42.36 33.80 41.46 41.71 41.27 41.04 41.30 40.28 42.13 42.82 44.70 43.36 39.55 39.84 40.11 40.88 40.28 40.84 39.61 39.77 39.64 38.87 38.22 35.79 35.74 30.76 37.59 35.25 37.43 40.35 41.72 43.27 45.18 42.24 42.44 42.24
51.20 51.84 55.98 56.49 54.07 54.87 54.07 53.22 41.99 35.21 44.98 41.45 38.83 39.41 40.08 38.62 38.90 39.84 40.62 41.39 40.75 37.45 38.84 41.91 41.02 40.04 39.88 38.33 38.49 38.18 36.14 31.83 32.00 30.89 31.65 34.66 34.13 37.16 42.52 42.47 42.37 40.31 40.05 40.57 41.00
49.84 50.88 53.24 56.59 55.39 55.59 56.39 47.41 33.88 39.46 40.93 45.04 42.56 40.28 41.86 40.23 42.12 40.22 41.56 40.80 39.70 38.94 37.26 35.69 34.61 37.48 39.22 39.99 38.31 35.46 37.06 31.84 26.61 28.74 32.91 37.36 33.46 39.69 43.75 43.52 40.95 40.45 40.11 39.91 39.68
48.64 52.40 52.29 54.10 54.86 56.01 49.60 36.56 37.19 40.99 43.96 42.83 42.80 40.29 41.01 40.47 41.32 39.91 38.72 40.07 40.61 39.12 36.28 35.63 35.34 39.74 37.40 38.77 40.55 37.24 33.10 39.04 32.35 33.28 29.13 34.32 39.00 43.09 41.76 42.03 39.73 39.30 39.76 38.05 38.14
46.40 46.92 48.26 54.18 55.61 53.42 42.84 36.37 39.00 44.56 44.65 44.49 38.61 41.45 37.24 39.75 38.23 37.35 39.65 39.44 38.53 38.89 40.43 38.17 33.20 40.59 40.86 38.00 38.45 38.00 38.98 31.06 32.36 24.80 24.47 30.70 33.01 34.89 39.10 38.88 38.65 37.92 36.92 36.34 36.92
45.48 40.63 45.98 54.12 54.77 46.12 35.45 36.27 39.49 44.03 44.57 41.50 39.91 39.02 39.46 38.55 39.73 38.78 38.81 41.76 43.22 40.70 40.44 40.22 36.76 35.96 38.80 36.36 36.17 32.77 32.94 33.84 33.00 31.84 26.18 24.76 30.41 40.74 38.90 36.80 36.40 35.40 34.79 34.44 34.93
44.03 33.58 47.76 53.66 41.49 41.92 37.14 39.07 41.41 41.16 43.67 41.63 42.09 41.21 38.99 39.03 37.10 36.99 36.56 39.98 44.73 43.48 38.27 41.27 37.10 32.14 35.68 41.89 41.08 39.15 37.05 37.32 30.24 28.21 30.92 29.48 30.13 38.90 36.76 35.41 33.82 31.70 32.22 33.36 33.29
39.90 39.88 47.31 50.63 34.51 35.96 39.68 39.47 40.88 39.74 39.70 39.63 38.34 40.81 41.03 37.61 33.75 37.10 38.04 41.84 43.06 41.63 39.39 40.25 35.10 29.46 32.22 35.90 36.59 34.04 36.27 35.86 34.86 32.73 28.98 26.57 29.93 38.00 34.06 32.41 31.78 30.16 31.00 31.51 32.60
37.92 32.07 38.82 44.21 42.61 37.29 35.21 35.19 35.66 39.35 39.55 40.52 39.07 40.60 38.24 35.70 37.66 34.93 35.97 39.43 40.08 40.07 40.26 40.89 35.28 31.20 27.24 31.42 35.41 31.82 34.26 34.69 33.09 27.98 28.23 28.36 30.10 35.14 37.26 35.38 30.17 29.23 30.75 30.81 30.04
35.34 31.59 35.36 33.58 35.91 36.90 36.25 35.06 32.90 32.87 37.37 38.28 35.44 36.54 33.50 30.43 31.76 31.84 34.62 35.51 37.33 36.15 37.64 36.54 29.87 32.16 33.00 34.17 33.71 31.55 30.29 30.13 28.15 28.49 24.48 27.58 27.64 31.81 34.03 27.56 27.87 28.30 29.80 30.45 28.72
32.29 31.72 33.73 31.90 32.24 32.70 33.43 32.76 32.01 33.36 33.46 32.01 31.92 33.92 32.35 30.02 31.26 29.54 31.19 31.88 31.44 33.04 31.53 32.71 27.04 29.27 24.81 29.56 29.29 26.58 28.58 28.55 27.58 27.20 26.41 27.15 26.80 34.65 28.91 28.60 28.37 28.46 28.66 29.17 28.91
35.25 36.47 33.71 29.11 28.94 29.36 29.66 31.22 29.57 31.89 29.62 30.99 29.43 28.86 27.87 30.24 32.58 32.48 32.33 31.18 30.75 28.45 27.25 27.02 26.64 24.67 20.98 27.05 24.45 18.91 23.67 26.47 27.86 29.67 28.86 24.18 27.41 26.41 24.86 26.53 27.80 28.10 28.53 28.74 29.15
MSLP
1021.66 1021.48 1021.36 1021.18 1021.05 1020.90 1020.74 1020.55 1020.42 1020.26 1020.07 1019.90 1019.65 1019.30 1018.95 1018.73 1018.36 1018.01 1016.98 1015.79 1015.91 1016.48 1016.60 1016.94 1016.97 1016.98 1016.91 1016.87 1017.02 1016.85 1015.72 1014.64 1014.22 1014.19 1013.31 1013.66 1013.60 1013.75 1013.51 1013.12 1013.15 1012.85 1012.22 1012.14 1013.48
1021.68 1021.53 1021.38 1021.27 1021.04 1020.93 1020.76 1020.61 1020.39 1020.23 1020.03 1019.81 1019.58 1019.34 1019.08 1018.80 1018.14 1016.87 1015.55 1015.65 1015.79 1016.15 1016.27 1016.30 1016.58 1016.88 1016.68 1016.86 1016.90 1016.38 1015.55 1014.34 1013.99 1013.75 1013.54 1013.54 1013.60 1013.34 1013.29 1012.49 1012.11 1011.95 1011.78 1012.45 1013.35
1021.58 1021.47 1021.33 1021.21 1021.06 1020.82 1020.68 1020.48 1020.24 1020.02 1019.82 1019.66 1019.42 1019.12 1018.97 1018.75 1017.75 1015.56 1015.36 1015.64 1015.97 1016.10 1015.98 1016.18 1016.27 1016.46 1016.49 1016.70 1016.35 1016.11 1014.89 1014.22 1013.97 1013.94 1014.07 1013.81 1013.58 1013.53 1012.82 1011.36 1011.02 1010.92 1010.90 1011.25 1012.32
1021.46 1021.35 1021.22 1021.06 1020.90 1020.69 1020.44 1020.29 1020.08 1019.84 1019.62 1019.41 1019.22 1019.00 1018.79 1018.41 1017.14 1015.57 1015.44 1015.58 1016.00 1016.14 1016.28 1016.45 1016.47 1016.41 1016.29 1016.18 1016.11 1016.03 1015.00 1014.58 1014.23 1014.34 1014.55 1014.14 1013.64 1013.14 1012.55 1010.51 1010.50 1010.62 1010.79 1010.84 1011.32
1021.29 1021.22 1021.07 1020.87 1020.72 1020.53 1020.28 1020.02 1019.80 1019.59 1019.40 1019.22 1019.05 1018.85 1018.42 1017.87 1016.16 1015.70 1015.74 1015.95 1016.20 1016.26 1015.94 1016.04 1016.15 1016.15 1015.85 1015.79 1016.06 1015.70 1014.67 1014.41 1014.37 1014.54 1014.40 1014.25 1013.05 1012.83 1011.24 1010.66 1010.30 1010.35 1010.73 1010.59 1010.57
1021.11 1021.05 1020.94 1020.78 1020.47 1020.21 1019.96 1019.70 1019.40 1019.14 1018.96 1018.85 1018.84 1018.87 1018.28 1017.23 1015.57 1015.84 1016.12 1016.44 1016.23 1016.27 1016.19 1016.16 1015.81 1016.09 1015.98 1015.93 1015.97 1015.28 1014.99 1014.43 1014.19 1014.14 1014.03 1013.84 1011.97 1012.48 1010.11 1010.09 1009.79 1009.82 1009.86 1009.83 1009.85
1021.12 1020.97 1020.85 1020.71 1020.44 1020.05 1019.67 1019.36 1019.10 1018.79 1018.51 1018.39 1018.48 1018.57 1017.92 1016.11 1015.67 1015.94 1016.11 1016.34 1016.45 1016.32 1016.33 1016.49 1016.34 1016.17 1016.17 1015.92 1015.94 1015.70 1015.15 1014.06 1013.13 1013.27 1013.51 1013.52 1012.12 1010.69 1009.46 1009.78 1009.44 1008.87 1008.67 1008.86 1009.01
1021.00 1020.90 1020.70 1020.47 1020.21 1019.78 1019.33 1018.98 1018.68 1018.41 1018.18 1018.12 1018.40 1018.27 1017.01 1016.17 1016.05 1016.18 1016.19 1016.39 1016.50 1016.53 1016.54 1016.62 1016.66 1016.48 1016.37 1016.28 1016.04 1015.65 1015.16 1013.57 1012.23 1013.22 1013.22 1013.27 1010.77 1009.29 1009.36 1009.59 1008.90 1008.40 1007.89 1007.66 1007.29
1020.86 1020.77 1020.61 1020.37 1020.00 1019.43 1018.99 1018.60 1018.47 1018.35 1018.22 1018.40 1018.37 1017.90 1016.55 1016.48 1016.34 1016.34 1016.31 1016.28 1016.55 1016.67 1016.74 1016.76 1016.61 1016.58 1016.54 1015.89 1015.46 1014.80 1013.47 1012.80 1012.50 1012.51 1012.82 1012.87 1010.78 1009.50 1009.71 1009.58 1008.51 1007.99 1007.54 1006.91 1006.82
1020.73 1020.66 1020.50 1020.19 1019.81 1019.32 1018.80 1018.49 1018.44 1018.45 1018.47 1018.37 1018.01 1018.05 1016.19 1016.25 1016.33 1016.49 1016.56 1016.53 1016.56 1016.68 1016.79 1016.83 1016.71 1016.26 1016.05 1015.66 1013.83 1013.03 1013.25 1012.97 1012.62 1012.20 1012.58 1012.33 1011.16 1010.43 1009.52 1009.29 1007.98 1007.08 1006.25 1006.33 1006.35
1020.44 1020.41 1020.32 1020.08 1019.65 1019.17 1018.51 1018.53 1018.69 1018.63 1018.10 1017.75 1017.28 1016.81 1016.18 1016.42 1016.59 1016.76 1016.76 1016.61 1016.64 1016.70 1016.43 1016.73 1016.31 1015.20 1014.33 1014.27 1013.45 1013.53 1013.34 1012.68 1012.42 1012.50 1012.37 1010.92 1010.25 1010.00 1009.62 1008.33 1007.10 1006.30 1005.95 1006.08 1005.99
1020.15 1020.18 1020.09 1019.92 1019.66 1019.26 1018.79 1019.07 1020.07 1020.34 1018.74 1017.21 1016.90 1016.83 1016.64 1016.60 1016.57 1016.86 1016.98 1016.92 1016.73 1016.52 1016.97 1017.08 1015.88 1015.12 1015.06 1014.93 1014.79 1014.21 1013.36 1012.62 1012.14 1012.40 1012.47 1011.10 1009.80 1009.24 1008.58 1007.45 1006.26 1006.23 1006.22 1006.24 1006.31
1019.93 1020.06 1019.96 1019.83 1019.65 1019.39 1019.66 1020.03 1020.19 1020.15 1019.46 1017.40 1017.18 1016.91 1016.86 1016.83 1016.69 1016.91 1017.11 1016.67 1016.74 1016.85 1016.69 1016.00 1014.98 1015.24 1015.51 1015.43 1015.11 1014.02 1013.84 1012.89 1012.39 1012.67 1012.32 1011.50 1009.09 1008.53 1007.29 1006.82 1006.39 1006.37 1006.66 1007.14 1007.43
1019.83 1019.91 1019.82 1019.70 1019.92 1019.87 1019.96 1020.35 1020.61 1020.56 1019.12 1017.48 1017.15 1016.93 1016.87 1016.80 1017.23 1017.49 1017.40 1017.13 1016.85 1016.75 1016.79 1016.35 1015.91 1015.83 1015.88 1015.71 1015.33 1014.03 1013.86 1013.80 1013.46 1013.18 1012.16 1012.17 1008.90 1008.39 1007.13 1006.20 1006.39 1006.73 1007.12 1007.73 1008.45
1019.90 1019.88 1019.90 1019.67 1019.67 1019.86 1020.35 1020.11 1020.63 1020.74 1018.80 1017.24 1016.68 1016.57 1016.54 1016.87 1017.47 1017.73 1017.71 1017.00 1016.80 1016.64 1017.10 1015.63 1015.91 1016.09 1015.67 1015.07 1015.22 1014.67 1014.99 1014.68 1014.36 1013.65 1012.91 1011.81 1010.85 1007.46 1007.42 1006.57 1006.82 1007.60 1008.58 1009.34 1010.47
1019.72 1019.65 1019.84 1019.71 1019.78 1020.34 1020.36 1020.22 1020.07 1019.90 1017.86 1016.89 1016.34 1016.23 1016.08 1016.37 1017.02 1017.52 1017.57 1017.28 1016.87 1016.55 1016.44 1016.05 1016.42 1016.18 1015.36 1015.33 1015.31 1015.18 1015.15 1015.22 1014.94 1014.30 1012.35 1010.63 1010.26 1007.86 1007.30 1007.22 1007.87 1008.88 1010.60 1011.51 1012.14
1019.93 1019.91 1019.95 1019.71 1019.71 1019.97 1020.01 1020.28 1020.08 1018.39 1016.76 1016.56 1016.30 1016.31 1016.11 1015.98 1016.35 1016.34 1016.41 1016.35 1016.55 1016.10 1015.63 1015.08 1015.49 1015.67 1015.40 1015.32 1015.66 1015.55 1015.57 1015.02 1014.36 1013.92 1011.72 1011.51 1010.69 1008.60 1007.64 1008.26 1009.50 1010.86 1012.23 1012.10 1012.64
1020.37 1020.12 1019.74 1019.72 1019.73 1019.96 1019.93 1019.92 1019.01 1017.36 1016.56 1015.79 1016.03 1016.36 1016.14 1015.80 1015.45 1015.97 1015.57 1015.00 1015.56 1016.02 1015.61 1015.20 1014.33 1015.25 1015.19 1014.83 1015.02 1015.85 1016.09 1016.59 1015.26 1014.09 1012.44 1011.87 1009.60 1008.30 1008.22 1009.25 1010.55 1011.77 1013.06 1013.55 1013.89
1020.15 1020.26 1019.79 1019.50 1019.89 1020.05 1020.33 1019.20 1016.94 1016.72 1016.14 1016.06 1015.73 1015.74 1015.51 1015.74 1015.97 1016.04 1015.87 1015.10 1015.17 1015.19 1015.57 1015.49 1015.15 1015.27 1015.33 1014.96 1015.48 1015.94 1015.86 1015.55 1015.78 1015.44 1014.17 1011.42 1009.34 1009.01 1009.40 1009.55 1011.90 1013.16 1014.13 1014.72 1014.98
1020.33 1020.10 1019.94 1019.92 1019.74 1019.86 1020.46 1018.78 1017.17 1016.37 1016.38 1016.17 1015.90 1015.45 1015.01 1015.65 1015.94 1016.08 1015.85 1015.82 1015.57 1015.79 1016.14 1016.89 1016.55 1015.35 1015.18 1015.54 1015.17 1014.90 1015.17 1015.90 1016.39 1015.46 1013.48 1011.13 1009.80 1008.80 1009.91 1010.78 1012.33 1014.21 1015.26 1015.59 1015.91
1020.34 1020.23 1019.68 1019.79 1019.92 1020.20 1019.21 1018.23 1017.40 1016.94 1016.88 1016.71 1015.95 1015.82 1015.55 1016.14 1016.18 1016.17 1015.83 1016.02 1015.79 1016.05 1016.31 1017.17 1017.05 1014.94 1015.78 1014.79 1014.50 1015.42 1015.32 1016.13 1016.30 1015.42 1013.40 1011.96 1009.62 1009.18 1010.21 1012.52 1013.41 1014.69 1015.77 1016.09 1016.17
1020.34 1020.24 1019.58 1019.55 1020.03 1019.43 1018.78 1018.09 1017.37 1017.16 1017.39 1017.08 1016.83 1016.53 1016.29 1016.40 1016.45 1016.72 1016.21 1015.91 1016.13 1016.46 1016.70 1016.53 1016.52 1016.36 1015.00 1014.13 1014.30 1014.27 1014.53 1015.01 1015.10 1013.83 1012.75 1011.70 1009.81 1010.94 1012.34 1014.03 1015.27 1016.17 1016.90 1017.42 1017.42
1020.36 1020.49 1019.97 1019.70 1019.20 1018.77 1018.27 1018.08 1017.80 1017.69 1017.67 1017.52 1017.15 1017.07 1016.95 1017.21 1017.34 1016.66 1016.52 1016.72 1016.98 1017.20 1017.05 1017.17 1016.94 1016.54 1015.17 1014.64 1015.28 1015.14 1014.77 1015.05 1015.18 1015.01 1013.41 1012.72 1011.80 1012.62 1013.79 1015.08 1016.38 1017.11 1017.69 1017.69 1017.68
1020.69 1020.85 1020.64 1019.87 1019.38 1019.13 1018.72 1018.10 1017.93 1018.00 1017.90 1017.92 1017.81 1017.86 1017.95 1018.02 1018.15 1017.39 1017.50 1017.82 1018.21 1018.39 1018.48 1018.41 1017.91 1017.55 1016.49 1015.71 1015.64 1016.36 1016.33 1016.03 1016.02 1015.06 1014.05 1013.33 1012.71 1012.73 1013.31 1014.46 1016.30 1017.26 1017.62 1017.77 1017.83
1020.67 1020.74 1020.71 1020.06 1019.80 1019.45 1019.39 1018.87 1018.74 1018.76 1018.73 1018.52 1018.46 1018.67 1019.01 1018.87 1018.84 1018.69 1018.74 1018.91 1018.96 1019.32 1019.27 1019.30 1018.64 1017.99 1017.26 1016.97 1016.90 1016.63 1016.64 1016.20 1015.80 1015.73 1015.09 1013.60 1013.57 1013.49 1014.27 1015.67 1016.21 1017.11 1017.39 1017.75 1017.65
1021.21 1020.94 1021.20 1020.63 1020.41 1020.25 1019.94 1018.98 1019.10 1019.58 1019.97 1019.75 1019.60 1019.68 1019.96 1019.89 1019.99 1020.17 1020.45 1020.26 1020.10 1019.92 1020.04 1020.28 1019.33 1018.85 1018.14 1017.57 1017.39 1017.04 1016.49 1015.84 1015.78 1015.54 1015.13 1014.58 1013.82 1014.02 1015.51 1016.05 1016.60 1016.84 1017.06 1016.98 1016.85
1021.69 1021.53 1021.08 1020.79 1021.11 1021.11 1020.19 1019.89 1019.94 1020.39 1021.10 1021.02 1021.14 1020.95 1020.91 1021.09 1021.11 1021.48 1021.68 1021.57 1021.46 1021.22 1021.10 1021.21 1020.48 1019.81 1018.44 1018.25 1017.99 1017.09 1015.44 1015.73 1015.04 1014.50 1014.54 1014.45 1014.73 1015.75 1016.48 1016.53 1016.55 1016.67 1016.63 1016.36 1016.29
Wind_Speed
10 10 11 11 11 11 11 11 11 11 11 12 13 12 12 11 6 3 7 3 5 13 8 9 4 4 2 3 1 1 4 6 5 5 3 4 5 4 2 8 5 8 9 6 6
8 9 9 9 10 10 10 10 10 10 11 11 11 12 12 11 3 8 2 5 10 14 10 13 8 7 4 3 3 5 4 6 5 6 5 4 5 6 6 12 14 12 16 10 6
6 7 7 8 9 9 9 9 9 9 10 10 11 12 11 7 6 2 4 9 14 8 6 5 8 6 5 4 7 5 8 8 8 12 7 7 7 5 10 16 16 13 11 8 11
5 6 7 7 8 9 9 9 10 10 10 9 9 11 12 3 7 2 2 10 13 7 10 7 7 6 5 8 5 6 12 11 4 3 3 7 5 8 14 26 21 19 17 14 14
5 5 6 7 8 10 11 11 11 11 10 9 8 7 2 2 8 3 6 9 10 9 11 10 9 6 8 6 5 10 11 10 12 9 9 10 20 15 23 25 24 20 15 18 17
4 6 7 7 8 10 12 13 14 13 13 11 7 5 3 9 3 5 7 7 6 10 8 8 6 6 3 6 9 2 8 13 10 12 11 11 25 4 16 14 17 14 16 15 16
5 5 6 8 9 10 12 13 14 14 13 8 6 3 3 13 3 5 6 3 3 5 5 3 3 6 4 5 3 4 12 16 14 11 9 9 14 18 22 11 15 19 16 12 13
4 5 6 7 9 12 13 13 13 9 7 2 8 4 8 2 4 5 4 3 3 3 1 1 3 2 4 1 2 6 4 11 3 5 4 10 20 21 11 8 14 16 17 19 24
4 5 7 9 11 13 14 13 2 6 8 11 3 3 7 3 1 2 1 3 6 3 4 5 3 3 2 9 9 8 14 17 16 8 3 13 12 14 5 8 23 22 23 24 22
5 6 8 9 11 14 16 2 4 4 3 2 2 3 4 1 2 3 2 6 3 7 5 3 3 7 5 9 14 14 10 9 11 5 8 12 19 20 23 22 26 26 26 21 18
5 6 8 9 11 14 8 1 2 2 1 3 7 6 4 2 0 3 1 5 4 3 8 4 9 14 21 21 21 15 16 21 20 17 13 22 21 18 21 24 26 26 20 16 14
5 6 8 8 10 12 2 4 3 2 9 8 9 7 2 2 3 3 2 6 5 7 5 4 13 17 10 8 12 17 22 22 20 17 8 17 24 24 24 27 24 22 17 14 13
3 4 6 7 9 3 4 3 3 4 5 6 1 2 2 3 4 1 3 4 4 7 11 18 11 3 13 13 14 18 17 19 22 14 13 13 15 3 9 12 12 11 11 8 9
3 1 3 4 2 1 1 2 1 3 5 2 0 1 1 1 2 2 1 1 3 5 6 10 6 6 4 10 15 21 15 17 15 7 10 6 11 11 14 15 5 10 9 10 16
6 5 3 6 3 2 3 5 4 3 8 1 2 1 2 1 3 4 2 3 3 2 2 7 4 3 9 12 6 9 5 5 4 7 6 6 8 3 2 12 5 8 10 15 16
7 5 3 2 1 2 2 3 3 2 7 2 3 4 5 3 2 2 1 0 2 3 5 13 1 5 6 2 5 1 5 6 2 5 9 9 9 3 3 2 2 11 16 15 16
6 4 2 1 1 5 2 2 2 6 2 3 3 1 2 4 5 8 7 6 6 10 13 11 10 3 4 8 3 3 4 5 6 6 8 4 4 7 12 4 8 11 11 15 17
9 5 3 1 4 5 2 2 10 3 7 2 2 2 4 5 5 4 7 12 3 7 9 10 17 7 5 5 3 5 5 4 6 9 17 4 10 5 5 9 16 17 14 13 14
4 1 1 3 6 2 1 7 6 8 5 5 3 8 9 2 5 2 4 9 4 13 10 5 9 1 5 4 5 5 9 8 14 9 7 11 16 14 7 8 10 10 10 11 11
1 2 3 2 9 3 4 10 8 4 1 3 10 6 14 12 5 2 5 2 1 3 5 3 7 10 2 2 7 8 2 3 3 7 8 9 18 16 12 8 6 9 10 11 11
2 2 1 4 5 2 7 9 8 4 5 6 9 11 10 10 10 10 6 2 5 4 5 11 9 15 1 9 16 5 6 5 3 6 7 14 14 15 5 9 8 8 11 12 13
3 3 1 6 6 3 9 5 3 3 2 3 4 9 13 9 10 10 14 12 1 6 11 7 3 7 19 16 10 11 17 20 15 13 13 18 19 9 11 8 5 4 4 5 8
4 2 2 2 7 9 5 6 7 7 7 4 6 5 2 8 7 11 12 1 4 4 4 3 3 9 8 7 1 6 6 9 8 2 14 15 3 9 11 9 5 2 0 2 6
3 4 1 3 0 6 9 9 9 1 5 9 8 6 7 10 10 11 8 3 5 4 7 2 4 8 13 16 15 9 11 8 9 7 10 12 18 18 16 11 1 1 1 1 2
1 3 2 6 8 7 4 3 4 5 2 3 3 5 0 5 4 8 9 5 3 4 2 1 8 10 13 12 11 14 15 17 17 15 10 14 18 21 16 2 1 2 3 6 4
3 3 2 2 2 4 7 11 18 14 11 7 11 11 5 10 12 12 8 9 13 2 3 2 9 10 14 16 14 16 18 19 19 20 22 24 26 18 1 2 4 4 6 7 6
1 1 0 5 5 6 5 6 4 6 2 2 3 0 3 4 1 2 5 6 6 4 2 3 4 7 17 15 9 12 20 18 19 23 23 23 13 6 3 4 7 7 10 12 9
Wind_Direction
41 38 34 34 30 26 20 16 11 3 356 350 345 340 337 339 311 176 243 196 170 153 120 135 140 128 148 118 119 217 233 242 240 205 221 182 236 178 279 263 215 208 249 299 129
35 31 27 21 20 14 12 6 2 357 348 341 337 330 330 335 276 247 229 169 154 158 146 166 166 159 163 147 178 225 241 244 232 220 241 253 244 283 255 255 247 253 247 233 195
23 19 16 10 3 359 351 347 342 341 339 334 330 325 326 314 287 240 137 179 160 173 160 154 147 172 198 191 189 178 238 245 238 239 252 274 264 241 267 271 259 270 275 255 228
359 1 360 354 347 339 335 331 326 321 321 319 319 320 322 254 299 100 88 154 158 156 137 142 160 181 219 217 183 233 243 244 265 221 232 259 298 255 244 261 278 285 279 279 251
340 340 340 337 332 327 326 324 317 309 307 305 304 318 288 217 249 95 118 136 152 167 179 174 179 189 218 214 192 232 250 250 248 253 252 276 264 264 263 265 278 272 267 267 265
323 331 333 327 325 326 323 320 316 311 306 297 281 299 191 253 80 131 123 143 181 186 183 182 221 212 247 240 223 270 264 273 262 250 237 238 269 247 255 269 277 275 271 267 260
316 328 332 326 318 315 309 307 309 309 303 290 215 221 224 256 62 132 140 153 174 194 178 210 162 193 168 251 255 313 294 288 258 244 230 215 262 233 262 271 273 283 285 279 260
310 321 325 324 317 310 308 313 316 313 316 184 163 190 252 47 122 144 161 104 119 103 258 159 178 197 239 2 239 261 247 279 286 169 187 199 270 278 295 277 278 283 284 281 279
307 318 326 326 319 312 315 319 350 53 94 126 153 238 262 141 183 60 255 153 120 97 69 112 169 228 200 239 265 220 267 260 285 226 196 206 270 284 271 291 289 283 282 277 284
308 312 318 321 319 317 327 308 152 135 138 228 122 225 198 308 120 102 55 142 125 132 119 157 162 213 214 217 246 260 245 248 256 272 232 265 257 278 287 289 279 282 278 286 288
288 303 314 321 324 332 341 206 251 184 255 272 267 266 276 63 83 62 57 129 121 180 199 182 210 215 230 227 247 281 272 271 277 282 297 283 287 285 281 278 277 278 285 289 284
274 292 301 314 324 330 312 58 63 30 296 259 266 275 324 343 305 105 178 193 190 216 139 174 236 244 277 279 256 258 265 273 276 275 284 286 293 287 271 270 271 282 292 289 303
268 296 300 314 323 1 26 94 146 159 257 291 274 249 333 214 213 202 244 148 204 188 210 247 267 249 220 239 260 250 262 268 276 307 270 296 280 245 292 265 290 283 282 308 357
86 31 321 292 223 76 101 98 144 278 271 245 148 129 143 108 84 321 6 124 155 301 246 261 311 245 240 249 247 274 267 267 277 285 282 356 292 293 273 284 334 25 67 60 65
68 17 331 327 128 190 99 127 122 234 287 79 148 152 145 125 119 36 288 154 237 241 221 273 267 212 223 235 221 273 353 298 282 260 294 232 259 326 259 262 181 61 57 66 45
49 35 171 148 150 66 108 146 193 205 248 200 191 180 152 146 120 149 202 355 152 197 207 268 249 241 252 178 200 42 297 269 222 266 260 262 223 100 191 280 353 59 77 51 47
36 20 303 266 93 155 131 297 258 217 103 194 224 212 332 160 181 188 180 212 278 296 294 287 261 249 233 249 132 172 299 299 256 219 269 93 265 276 275 254 5 83 71 53 42
345 317 196 245 140 150 197 130 238 177 245 119 173 179 254 175 232 226 269 279 218 232 280 288 294 195 160 235 137 175 214 207 278 283 292 284 255 262 297 65 65 55 51 46 40
341 21 241 183 161 151 214 221 231 218 223 244 212 261 258 226 256 298 261 282 304 190 226 241 251 127 205 154 176 187 214 242 259 268 272 252 270 275 18 162 73 59 50 47 44
106 149 220 329 158 134 202 250 244 227 170 251 255 242 272 276 244 237 257 117 271 169 337 23 291 221 264 237 223 227 77 213 178 225 229 259 287 272 248 167 71 48 34 29 23
130 170 111 176 153 185 212 227 259 265 268 257 253 259 268 288 267 270 253 233 203 181 180 190 219 281 216 225 259 182 208 210 200 223 285 278 272 316 360 78 70 27 17 19 20
158 179 162 181 174 189 225 210 222 235 64 299 303 258 258 276 273 264 257 252 121 296 273 240 248 246 262 263 247 254 263 251 241 248 245 253 254 104 113 106 97 84 46 12 12
151 80 352 247 197 212 220 229 241 222 228 223 251 238 230 263 270 254 261 322 329 291 290 23 244 275 253 240 151 246 261 275 282 308 249 259 233 111 137 100 62 128 58 31 356
137 140 249 227 306 221 236 252 237 42 249 229 242 242 253 256 251 271 283 2 359 357 10 330 221 253 276 286 310 284 268 260 247 257 276 253 273 273 284 317 84 268 249 222 341
69 179 338 184 221 208 250 221 201 206 250 246 223 193 88 269 294 254 280 285 228 360 254 288 268 278 275 281 279 273 275 264 260 268 257 287 289 279 300 345 34 324 251 226 258
154 161 136 121 64 180 206 239 245 246 247 237 259 281 280 251 251 286 299 269 272 290 286 182 262 289 282 278 258 262 260 264 275 271 263 260 265 289 63 334 253 292 297 276 296
137 55 165 135 165 186 206 214 161 164 91 121 108 291 235 256 186 181 242 253 261 261 278 275 270 269 268 276 289 257 244 259 266 269 270 275 297 95 185 285 301 305 317 298 296